SCP
1 1 0 0 0 0 0 0 0 0 0 0 0 0 0 0 0 0 0 0 0 0 0 0 0 0 0 0 0 0 0 0 0 0 0 0 0 0 0 0 0 0 0 0
1 0 0 0 0 0 0 0 0 0 0 0 0 0 0 0 0 0 0 0 0 0 0 0 0 0 0 0 0 0 0 0 0 0 0 0 0 0 0 0 0 0 0 0
0 0 0 0 0 0 0 0 0 0 0 0 0 0 0 0 0 0 0 0 0 0 0 0 0 0 0 0 0 0 0 0 0 0 0 0 0 0 0 0 0 0 0 0
0 0 0 0 0 0 0 0 0 0 0 0 0 0 0 0 0 0 0 0 0 0 0 0 0 0 0 0 0 0 0 0 0 0 0 0 0 0 0 0 0 0 0 0
0 0 0 0 0 0 0 0 0 0 0 0 0 0 0 0 0 0 0 0 0 0 0 0 0 0 0 0 0 0 0 0 0 0 0 0 0 0 0 0 0 0 0 0
0 0 0 0 0 0 0 0 0 0 0 0 0 0 0 0 0 0 0 0 0 0 0 0 0 0 0 0 0 0 0 0 0 0 0 0 0 0 0 0 0 0 0 0
0 0 0 0 0 0 0 0 0 0 0 0 0 0 0 0 0 0 0 0 0 0 0 0 0 0 0 0 0 0 0 0 0 0 0 0 0 0 0 0 0 0 0 0
0 0 0 0 0 0 0 0 0 0 0 0 0 0 0 0 0 0 0 0 0 0 0 0 0 0 0 0 0 0 0 0 0 0 0 0 0 0 0 0 0 0 0 0
0 0 0 0 0 0 0 0 0 0 0 0 0 0 0 0 0 0 0 0 0 0 0 0 0 0 0 0 0 0 0 0 0 0 0 0 0 0 0 0 0 0 0 0
0 0 0 0 0 0 0 0 0 0 0 0 0 0 0 0 0 0 0 0 0 0 0 0 0 0 0 0 0 0 0 0 0 0 0 0 0 0 0 0 0 0 0 0
0 0 0 0 0 0 0 0 0 0 0 0 0 0 0 0 0 0 0 0 0 0 0 0 0 0 0 0 0 0 0 0 0 0 0 0 0 0 0 0 0 0 0 0
0 0 0 0 0 0 0 0 0 0 0 0 0 0 0 0 0 0 0 0 0 0 0 0 0 0 0 0 0 0 0 0 0 0 0 0 0 0 0 0 0 0 0 0
0 0 0 0 0 0 0 0 0 0 0 0 0 0 0 0 0 0 0 0 0 0 0 0 0 0 0 0 0 0 0 0 0 0 0 0 0 0 0 0 0 0 0 0
0 0 0 0 0 0 0 0 0 0 0 0 0 0 0 0 0 0 0 0 0 0 0 0 0 0 0 0 0 0 0 0 0 0 0 0 0 0 0 0 0 0 0 0
0 0 0 0 0 0 0 0 0 0 0 0 0 0 0 0 0 0 0 0 0 0 0 0 0 0 0 0 0 0 0 0 0 0 0 0 0 0 0 0 0 0 0 0
0 0 0 0 0 0 0 0 0 0 0 0 0 0 0 0 0 0 0 0 0 0 0 0 0 0 0 0 0 0 0 0 0 0 0 0 0 0 0 0 0 0 0 0
0 0 0 0 0 0 0 0 0 0 0 0 0 0 0 0 0 0 0 0 0 0 0 0 0 0 0 0 0 0 0 0 0 0 0 0 0 0 0 1 1 1 0 0
0 0 0 0 0 0 0 0 0 0 0 0 0 0 0 0 0 0 0 0 0 0 0 0 0 0 0 0 0 0 0 0 0 0 0 0 0 0 0 0 1 1 1 0
0 0 0 0 0 0 0 0 0 0 0 0 0 0 0 0 0 0 0 0 0 0 0 0 0 0 0 0 0 0 0 0 0 0 0 0 0 0 0 0 1 1 1 1
0 0 0 0 0 0 0 0 0 0 0 0 0 0 0 0 0 0 0 0 0 0 0 0 0 0 0 0 0 0 0 0 0 0 0 0 0 0 0 0 0 1 1 1
0 0 0 0 0 0 0 0 0 0 0 0 0 0 0 0 0 0 0 0 0 0 0 0 0 0 0 0 0 0 0 0 0 0 0 0 0 0 0 0 0 0 1 1
0 0 0 0 0 0 0 0 0 0 0 0 0 0 0 0 0 0 0 0 0 0 0 0 0 0 0 0 0 0 0 0 0 0 0 0 0 0 0 0 0 0 0 1
0 0 0 0 0 0 0 0 0 0 0 0 0 0 0 0 0 0 0 0 0 0 0 0 0 0 0 0 0 0 0 0 0 0 0 0 0 0 0 0 0 0 0 0
0 0 0 0 0 0 0 0 0 0 0 0 0 0 0 0 0 0 0 0 0 0 0 0 0 0 0 0 0 0 0 0 0 0 0 0 0 0 0 0 0 0 0 0
0 0 0 0 0 0 0 0 0 0 0 0 0 0 0 0 0 0 0 0 0 0 0 0 0 0 0 0 0 0 0 0 0 0 0 0 0 0 0 0 0 0 0 0
0 0 0 0 0 0 0 0 0 0 0 0 0 0 0 0 0 0 0 0 0 0 0 0 0 0 0 0 0 0 0 0 0 0 0 0 0 0 0 0 0 0 0 0
Wind_Speed
8 9 9 10 5 1 5 7 8 6 4 4 2 0 2 2 1 2 3 4 5 6 6 7 8 8 7 7 7 6 7 6 5 3 2 1 1 1 1 1 3 3 4 4
9 8 7 6 5 3 5 8 8 6 3 2 3 4 5 5 3 2 1 2 3 4 5 6 8 9 9 8 8 8 7 6 6 3 2 1 1 1 1 1 1 3 4 4
8 7 7 8 8 7 5 6 6 6 5 4 5 9 8 7 7 6 4 2 1 1 3 5 7 8 8 8 9 7 7 7 6 5 2 2 1 2 2 1 1 2 3 4
5 6 8 8 7 6 6 3 3 5 8 5 2 9 8 7 8 8 7 5 4 2 0 2 4 6 7 7 7 8 7 7 7 6 4 3 2 2 2 2 1 1 2 3
5 7 7 7 5 3 5 3 3 4 6 7 3 6 8 6 8 8 8 7 6 4 2 1 1 3 4 5 6 7 7 7 7 6 5 5 3 2 1 2 2 2 1 2
5 3 2 2 4 2 6 6 5 4 5 6 3 3 7 6 6 6 7 7 7 6 4 3 2 2 3 4 6 6 7 7 7 7 7 6 4 4 3 3 2 2 1 2
7 5 3 2 5 5 6 6 6 7 5 6 3 2 7 7 6 6 6 7 8 7 6 5 3 1 2 4 5 7 8 8 8 8 8 7 6 5 4 4 3 3 2 2
11 10 7 5 3 5 5 6 4 5 7 8 4 5 8 6 5 5 5 7 8 8 7 6 4 2 1 2 4 6 7 8 8 8 8 7 6 5 4 4 4 3 3 2
8 8 6 3 1 2 5 3 2 2 5 6 7 7 8 5 6 7 8 8 9 9 8 7 6 4 2 0 2 4 6 7 7 8 8 7 7 6 5 5 5 4 3 3
4 9 6 6 6 3 2 3 4 4 6 6 7 7 5 4 4 6 8 9 9 9 9 8 7 6 4 2 1 2 4 6 6 7 7 6 7 7 6 6 5 5 5 4
4 8 8 7 4 5 5 4 2 2 1 4 7 6 4 3 4 5 7 8 9 9 9 8 7 6 6 4 2 1 2 4 5 6 7 7 7 7 7 7 6 6 6 6
2 4 8 5 3 2 1 1 4 3 4 2 3 6 5 4 4 5 6 7 8 8 8 8 8 7 7 6 5 3 2 2 3 5 6 7 7 7 8 8 7 8 7 6
3 5 8 8 7 5 3 2 1 1 3 4 4 6 6 6 6 5 6 7 7 8 9 9 9 9 8 7 6 5 4 3 2 3 5 6 7 8 8 8 8 8 8 8
4 4 5 4 2 5 6 5 4 5 5 5 4 6 7 6 6 5 6 6 7 8 9 9 9 9 9 8 8 7 5 4 3 2 3 5 6 7 8 8 8 9 9 9
5 3 2 3 4 2 4 6 7 7 5 6 4 5 6 7 6 6 6 6 7 9 9 10 9 9 9 9 8 8 7 6 4 4 4 4 5 6 7 7 8 9 9 10
2 3 5 4 3 2 4 6 7 7 5 5 4 4 5 7 8 7 7 6 7 8 8 9 9 9 10 10 9 8 8 6 5 5 5 5 6 6 6 7 8 9 10 10
3 5 6 6 4 5 9 8 9 7 6 7 8 5 10 10 9 7 7 6 6 6 7 7 8 8 9 9 9 9 8 7 6 6 6 6 6 6 7 7 7 8 9 10
4 6 4 4 6 10 1 4 3 5 4 4 2 6 10 9 8 7 5 5 5 5 5 5 6 7 7 8 8 7 7 8 8 8 8 7 7 7 7 7 8 8 8 9
4 6 5 5 7 5 3 6 7 7 5 6 6 8 10 10 9 7 5 3 4 4 4 4 5 5 6 7 8 7 8 8 9 9 9 9 8 8 8 8 8 8 8 9
4 6 7 6 7 6 3 7 5 5 6 7 8 11 12 12 8 6 7 5 3 2 2 2 3 4 5 6 7 7 7 8 9 9 9 9 9 9 8 9 9 8 7 8
8 7 9 9 8 4 6 8 8 8 3 9 10 11 12 10 2 7 8 5 4 2 1 1 2 3 4 5 6 6 7 8 8 8 9 9 9 9 9 9 8 8 7 8
9 9 10 8 9 5 10 9 8 3 7 8 9 10 10 6 6 8 7 6 4 3 1 0 1 2 3 4 5 6 7 8 8 8 8 9 9 9 8 8 8 8 8 8
7 5 4 5 1 6 7 5 3 4 5 7 7 8 8 8 7 7 7 5 4 3 2 1 2 2 3 4 5 6 7 8 8 8 9 9 9 8 8 9 9 8 7 7
5 3 4 4 4 5 5 5 4 4 4 5 6 8 9 8 8 7 6 5 5 4 3 2 3 4 4 4 5 6 7 8 9 9 9 9 9 9 9 7 7 7 7 7
5 7 6 6 4 5 7 8 7 6 5 5 6 7 8 8 8 7 6 6 5 4 3 4 4 5 5 5 6 6 7 8 9 10 9 9 8 9 9 8 7 8 8 7
8 8 8 6 6 6 6 7 8 8 7 7 7 7 7 8 8 8 7 6 6 5 5 5 5 6 6 6 7 7 7 8 9 9 9 8 8 8 8 9 9 7 9 11
Wind_Direction
171 185 182 175 177 131 164 164 147 126 140 201 203 118 81 76 140 197 195 198 202 204 193 190 193 197 196 193 196 187 181 172 168 173 202 216 230 263 304 354 5 342 341 345
169 182 164 158 163 172 166 153 136 126 133 189 127 99 85 78 73 55 42 164 190 196 189 189 198 198 199 194 196 193 188 178 181 183 197 214 293 289 338 305 301 328 340 345
164 137 153 169 171 169 153 142 132 129 144 160 146 113 97 88 82 75 58 42 82 197 211 193 197 202 201 200 200 198 189 181 184 178 177 183 194 231 223 248 294 335 337 340
129 142 169 172 163 166 130 105 138 158 167 127 154 118 96 83 82 66 57 51 48 47 314 211 200 200 205 202 200 202 191 190 182 181 197 214 249 285 308 305 317 296 308 327
135 158 170 162 139 164 99 115 134 152 147 136 122 126 107 96 77 57 48 46 43 41 41 60 202 207 204 195 197 202 191 193 187 197 199 222 238 266 277 274 275 285 307 312
107 141 186 106 101 124 138 144 127 154 175 136 84 131 112 80 51 41 43 44 41 38 43 51 73 144 173 186 192 196 194 196 191 201 209 221 235 244 253 258 273 277 278 294
135 149 157 171 148 155 199 183 167 171 176 125 108 126 96 68 43 29 30 39 42 39 42 47 57 102 155 182 193 196 198 200 198 205 214 219 231 242 249 262 259 274 284 285
152 151 167 188 209 164 194 228 212 174 156 133 161 129 99 71 56 49 52 53 52 47 42 41 39 46 118 189 199 204 205 207 204 210 217 223 224 234 246 250 263 265 280 297
155 131 132 149 177 198 176 189 341 127 136 150 138 126 119 91 80 64 57 52 46 40 39 41 40 35 35 23 217 218 215 215 211 216 220 223 226 230 238 239 246 256 262 270
165 135 136 148 160 72 356 137 197 199 171 158 152 157 142 120 78 62 52 46 41 36 37 40 40 39 34 28 345 239 234 231 223 220 222 224 228 229 237 244 241 250 253 255
213 157 151 172 198 154 158 164 158 141 223 194 168 139 81 98 67 60 57 49 42 38 35 36 37 38 38 37 33 336 254 248 240 234 229 229 227 229 229 236 238 243 246 242
231 198 153 137 85 353 260 169 211 202 155 244 178 116 88 90 85 78 69 57 50 45 44 42 39 37 35 29 22 7 330 281 264 253 243 239 236 232 235 234 236 239 245 249
183 206 163 157 164 168 150 123 199 185 172 198 203 127 117 113 104 90 77 67 60 53 49 46 41 37 31 23 16 14 354 335 305 272 259 252 247 244 244 243 239 242 242 245
267 225 233 207 140 162 164 158 189 216 216 205 209 144 149 144 128 111 95 80 70 60 50 43 38 36 30 24 17 18 10 357 342 308 277 267 261 257 256 255 250 247 245 244
257 214 149 87 89 159 186 185 197 225 247 243 194 174 159 154 141 123 108 93 77 62 50 42 36 33 29 25 19 20 17 9 357 341 318 302 288 276 268 262 254 252 249 246
252 189 167 156 137 191 219 213 212 222 230 226 192 181 131 135 139 132 118 100 82 64 51 42 36 32 28 24 19 20 19 15 6 356 340 330 311 299 283 273 264 255 251 250
183 207 217 206 166 234 240 225 211 206 209 206 210 174 147 152 151 139 123 107 87 70 54 43 35 30 25 22 18 19 16 15 13 6 357 346 328 313 301 290 276 264 256 252
210 205 222 224 207 238 91 86 177 187 197 208 186 142 162 155 144 134 126 117 100 80 61 47 36 30 23 20 19 16 15 15 12 8 359 350 338 326 314 301 288 277 266 254
251 202 210 224 233 247 187 171 176 182 181 183 174 153 148 143 150 150 138 127 105 87 66 51 31 25 21 16 9 6 11 12 10 5 355 348 340 331 323 313 301 293 282 270
189 222 221 214 229 238 152 143 166 196 189 168 170 159 157 166 188 164 155 153 133 110 75 48 29 21 18 9 359 357 2 5 3 355 347 343 338 331 325 319 312 303 290 280
176 194 217 221 233 244 117 140 169 207 160 154 171 166 170 187 190 123 148 156 147 135 106 40 10 14 8 354 348 349 355 358 352 344 339 339 335 329 325 321 318 310 301 291
188 187 200 208 224 213 139 162 195 104 105 152 169 174 179 170 130 140 153 158 162 162 169 260 331 352 348 340 337 342 349 346 341 335 333 333 333 330 327 322 317 313 308 297
214 215 203 215 195 83 157 166 117 124 147 157 169 174 175 170 166 165 169 173 182 193 207 250 294 306 313 325 331 333 337 331 328 326 327 326 325 327 325 320 317 313 312 305
179 186 213 218 201 172 176 173 167 170 167 161 170 174 179 182 178 180 184 190 201 213 222 247 265 279 299 313 314 316 320 318 318 320 321 321 322 323 322 319 316 316 314 311
174 181 206 221 187 180 198 199 187 179 175 170 174 182 187 189 190 193 198 203 211 218 227 245 263 281 292 299 304 307 311 312 311 311 312 315 317 316 314 314 312 307 306 306
192 196 199 214 191 196 187 181 184 187 188 186 185 189 195 200 201 203 210 210 217 225 235 248 261 271 283 293 298 303 304 304 305 308 311 311 311 311 310 309 307 285 274 281